Vorticity
9 9 9 9 9 5 10 4 -1 3 1 -1 4 6 14 -11 -8 -4 -4 -3 23 11 9 7 9 7 6 3 3 4 4 4 3 4 4 5 6 7 7 6 5 5 6 6 5 5 8 6 4
9 7 8 6 4 3 10 7 8 0 7 8 15 7 5 22 11 12 4 17 -9 21 8 10 5 7 5 3 3 3 4 4 4 3 5 6 7 8 7 5 4 5 5 6 7 4 4 5 5
10 8 9 10 11 6 14 13 -1 7 2 15 16 10 8 7 -1 10 4 9 8 12 17 11 9 8 5 4 3 3 4 4 5 4 5 7 8 8 4 5 5 5 5 3 6 5 4 4 5
9 10 9 7 5 3 7 3 5 15 12 9 3 12 15 19 27 -5 6 9 15 14 11 7 12 4 4 5 5 4 5 6 7 2 4 9 7 6 5 5 4 3 4 4 1 0 4 2 3
5 8 7 6 12 4 18 1 2 18 5 10 10 9 4 5 7 5 11 17 8 15 5 10 6 9 6 4 5 4 7 8 4 7 9 8 7 4 4 5 3 1 3 2 1 1 3 5 4
6 8 7 10 12 8 3 4 19 14 9 -7 7 4 19 -1 8 14 14 15 11 2 10 9 11 7 1 8 3 5 9 9 6 8 11 6 4 4 5 3 2 4 3 2 3 3 4 4 4
2 7 11 3 9 16 10 16 19 6 4 4 3 2 13 10 -7 11 11 12 8 11 44 0 14 7 3 13 10 12 5 9 9 4 9 6 6 5 4 1 1 2 4 3 3 2 4 5 6
7 8 8 8 9 6 -5 15 5 9 7 9 10 5 4 32 2 -2 5 -5 11 13 21 23 17 15 -7 11 15 0 7 9 8 10 6 7 5 5 2 2 3 3 3 3 2 1 6 9 7
5 6 7 12 12 1 -4 12 10 4 6 11 7 14 3 9 0 5 -0 11 13 12 11 15 20 5 11 48 6 9 6 7 8 5 3 5 3 1 2 2 2 3 3 3 1 4 8 10 7
10 5 10 7 6 -1 4 12 7 6 -2 11 16 4 10 4 8 2 10 13 12 14 12 -0 17 43 -5 -33 10 -2 2 -2 3 7 6 5 3 2 2 3 2 3 3 2 3 6 6 5 7
4 9 7 8 1 0 6 13 6 7 13 8 1 12 9 9 6 17 8 12 9 6 8 10 17 3 19 93 -1 -32 18 -10 4 3 5 3 3 3 3 2 4 3 2 3 5 -2 6 6 7
8 10 12 2 10 6 17 7 9 9 2 16 12 5 6 17 5 9 21 32 23 27 15 11 64 59 -49 20 45 34 35 33 -6 2 -0 5 2 1 2 2 3 2 3 4 -2 1 8 9 6
9 5 12 9 -5 -14 9 5 10 17 15 15 12 7 20 14 11 4 30 14 3 -1 15 10 -8 -1 43 9 12 22 13 10 -7 0 7 2 1 2 3 4 2 4 3 -2 2 10 15 7 4
3 28 26 18 15 15 9 7 6 -6 16 9 4 8 2 8 10 8 24 23 26 26 30 22 29 45 37 44 68 17 -5 -4 4 7 2 2 -2 3 3 2 2 4 -1 6 10 11 8 5 2
8 0 3 13 10 6 11 7 4 3 16 12 20 -2 14 -10 7 7 5 29 29 26 45 28 36 9 -1 -2 -12 -8 -2 8 6 3 2 1 3 4 3 4 6 3 10 9 9 9 5 2 1
12 1 7 9 7 -0 6 2 10 16 12 3 -2 3 16 -2 3 13 1 7 -2 8 17 15 -0 10 -8 0 11 5 2 2 2 4 2 11 1 3 6 10 3 7 9 12 7 5 3 2 3
12 5 10 9 4 -1 6 -1 -6 11 9 3 8 10 -4 4 0 7 12 2 4 4 0 -6 -4 0 5 6 6 6 6 5 6 4 4 2 2 4 4 0 0 7 7 6 5 5 3 2 2
6 2 6 11 1 18 8 7 0 2 13 4 9 11 2 12 9 5 9 11 8 8 9 7 8 12 11 10 8 7 6 5 6 5 2 10 3 3 3 -0 2 4 6 2 6 6 2 2 2
12 8 3 15 3 4 6 4 25 14 5 15 7 14 14 14 11 5 6 7 7 8 9 9 10 8 8 8 7 5 8 7 6 5 6 6 4 7 3 3 1 3 6 5 4 4 4 2 4
12 8 5 7 8 -16 0 7 11 6 8 6 7 14 15 3 10 8 7 5 5 4 6 5 4 5 6 8 6 7 8 7 6 6 3 5 2 5 8 5 3 5 6 6 3 4 5 3 4
7 7 6 10 17 6 7 18 14 16 9 4 9 8 8 12 10 10 6 4 5 4 4 5 6 6 5 3 1 3 3 5 7 9 10 5 7 0 3 4 5 5 5 5 5 5 4 2 3
7 11 9 4 6 12 2 8 3 10 3 15 9 5 5 5 9 9 8 7 5 8 6 4 2 2 2 3 3 3 2 3 3 6 6 7 6 6 4 5 6 4 4 7 5 6 5 1 3
8 15 8 15 8 4 8 8 19 -4 11 12 17 13 8 4 4 6 5 4 8 8 6 6 5 4 4 4 4 3 4 5 2 3 3 3 7 2 2 4 7 5 6 7 8 6 0 4 -4
9 6 6 9 11 19 10 -2 21 11 12 7 8 11 17 10 3 6 6 9 8 6 8 8 6 5 7 8 7 7 7 7 6 4 5 4 7 13 6 10 9 7 9 9 8 3 13 11 -1
7 6 9 12 11 5 20 15 -4 -2 13 15 18 0 13 10 16 6 4 4 3 7 3 2 2 1 1 6 13 12 7 6 4 17 21 7 6 2 6 21 12 5 7 -6 15 -3 9 3 30
16 5 -20 10 7 21 13 16 18 -4 3 18 11 11 17 19 15 19 7 3 1 2 3 5 7 10 10 5 15 10 7 8 3 16 4 8 11 10 9 20 -1 -2 9 17 1 -4 16 1 10
17 11 4 4 7 7 5 6 12 14 8 16 16 16 23 18 15 16 12 13 6 2 1 1 3 6 3 10 -0 2 10 7 3 8 7 12 5 1 24 13 25 -3 -12 11 20 26 -25 -11 13
-10 25 8 2 8 7 15 14 -0 15 10 6 5 22 19 14 14 20 9 8 5 5 5 10 11 10 0 5 7 -1 7 14 12 9 9 9 6 12 19 2 2 10 9 25 -22 8 -9 37 20
17 6 11 16 5 5 7 10 12 -5 -6 1 1 5 10 15 26 17 17 19 15 8 7 3 10 6 -1 2 6 4 2 7 10 11 2 18 31 16 5 5 1 -15 13 -5 1 -56 15 16 3
6 10 1 -4 6 10 15 9 -0 -9 25 15 12 9 12 10 13 21 19 16 9 20 19 5 6 12 12 16 14 13 11 9 9 11 6 11 8 22 4 8 0 22 8 29 -6 16 20 7 4
Height
3142 3143 3144 3145 3151 3146 3140 3141 3141 3142 3141 3137 3139 3140 3146 3143 3144 3146 3141 3142 3143 3143 3143 3144 3147 3150 3152 3155 3159 3163 3165 3168 3170 3172 3174 3175 3176 3178 3178 3179 3180 3181 3181 3181 3182 3183 3183 3182 3182
3140 3142 3143 3144 3146 3139 3136 3138 3141 3140 3138 3138 3137 3140 3141 3137 3143 3142 3140 3139 3142 3141 3141 3141 3144 3148 3152 3154 3158 3161 3164 3167 3169 3172 3174 3175 3176 3178 3178 3180 3181 3181 3183 3183 3183 3183 3184 3182 3182
3140 3140 3143 3143 3140 3137 3135 3136 3139 3137 3137 3136 3137 3137 3136 3136 3139 3138 3138 3138 3137 3136 3138 3139 3142 3146 3150 3153 3157 3160 3163 3166 3169 3172 3174 3175 3176 3177 3179 3180 3182 3182 3183 3184 3184 3183 3184 3184 3184
3140 3140 3141 3140 3137 3137 3137 3137 3136 3135 3135 3135 3136 3135 3135 3135 3134 3134 3135 3135 3134 3134 3135 3137 3140 3143 3148 3151 3155 3158 3162 3165 3168 3172 3173 3174 3176 3178 3179 3181 3182 3182 3183 3184 3184 3185 3185 3185 3184
3139 3140 3139 3137 3136 3136 3135 3135 3133 3134 3134 3134 3134 3133 3133 3133 3132 3132 3131 3133 3132 3133 3133 3135 3137 3140 3144 3148 3153 3157 3161 3164 3168 3171 3173 3174 3175 3177 3179 3181 3181 3182 3184 3185 3185 3185 3184 3183 3183
3140 3139 3137 3133 3134 3135 3135 3133 3131 3132 3133 3132 3132 3131 3131 3131 3131 3129 3129 3130 3129 3125 3130 3131 3134 3137 3141 3145 3148 3152 3158 3163 3167 3170 3173 3173 3175 3178 3180 3181 3182 3182 3183 3184 3184 3184 3183 3183 3182
3139 3139 3135 3134 3134 3134 3134 3131 3131 3132 3132 3131 3130 3130 3128 3128 3129 3128 3127 3128 3129 3130 3115 3119 3130 3136 3138 3141 3142 3147 3154 3161 3166 3169 3173 3174 3176 3177 3180 3181 3181 3181 3182 3183 3184 3183 3183 3183 3182
3137 3137 3136 3134 3133 3134 3133 3130 3130 3130 3130 3129 3128 3128 3126 3124 3124 3125 3126 3126 3128 3127 3128 3121 3117 3132 3133 3134 3136 3142 3151 3159 3163 3168 3170 3174 3176 3177 3179 3180 3181 3182 3182 3182 3182 3183 3182 3181 3181
3135 3137 3134 3134 3134 3133 3131 3131 3129 3128 3128 3128 3126 3124 3124 3123 3122 3123 3124 3124 3125 3125 3124 3125 3128 3130 3128 3128 3128 3141 3150 3155 3163 3165 3167 3172 3175 3177 3179 3180 3181 3181 3181 3181 3182 3182 3181 3181 3181
3136 3135 3134 3133 3133 3132 3130 3128 3128 3127 3125 3125 3124 3123 3122 3122 3121 3122 3120 3119 3121 3120 3122 3123 3124 3125 3126 3128 3132 3136 3143 3150 3161 3166 3167 3171 3175 3177 3179 3179 3179 3180 3181 3181 3181 3181 3180 3181 3180
3135 3134 3133 3132 3131 3130 3129 3127 3126 3125 3124 3123 3122 3122 3121 3121 3120 3118 3115 3113 3115 3117 3118 3120 3120 3120 3119 3123 3126 3129 3137 3147 3153 3162 3164 3169 3173 3175 3177 3179 3179 3179 3180 3180 3180 3180 3180 3180 3180
3133 3132 3130 3130 3128 3128 3126 3126 3125 3124 3122 3120 3119 3120 3119 3119 3118 3116 3113 3109 3110 3111 3114 3114 3112 3115 3119 3119 3130 3133 3137 3148 3156 3158 3164 3170 3172 3175 3176 3177 3178 3179 3179 3179 3179 3179 3178 3178 3178
3131 3131 3128 3127 3126 3126 3126 3125 3124 3122 3120 3119 3119 3119 3119 3119 3117 3115 3111 3107 3109 3111 3112 3112 3116 3118 3119 3124 3128 3133 3143 3153 3156 3160 3166 3169 3172 3174 3175 3177 3177 3177 3177 3177 3177 3176 3175 3176 3176
3130 3128 3126 3126 3125 3126 3125 3124 3123 3122 3119 3118 3118 3118 3119 3120 3118 3115 3112 3110 3111 3112 3112 3115 3117 3120 3122 3126 3129 3140 3148 3150 3156 3161 3165 3169 3171 3173 3175 3176 3176 3176 3176 3175 3173 3173 3173 3174 3173
3129 3128 3127 3126 3126 3125 3124 3123 3123 3122 3120 3119 3117 3117 3119 3120 3119 3118 3117 3117 3115 3114 3114 3116 3118 3120 3126 3134 3138 3142 3144 3150 3156 3160 3164 3167 3170 3172 3173 3174 3174 3174 3173 3172 3172 3172 3170 3170 3169
3128 3128 3124 3124 3125 3125 3125 3122 3122 3121 3120 3119 3118 3120 3120 3121 3122 3120 3121 3122 3121 3121 3120 3121 3124 3127 3131 3136 3140 3142 3146 3150 3155 3160 3164 3166 3167 3170 3171 3171 3172 3171 3171 3171 3169 3168 3168 3166 3165
3126 3122 3124 3124 3124 3124 3124 3122 3121 3120 3120 3119 3119 3120 3122 3122 3122 3122 3123 3125 3125 3127 3127 3129 3130 3133 3137 3140 3142 3145 3148 3151 3155 3158 3161 3163 3165 3167 3168 3168 3169 3168 3168 3166 3165 3164 3163 3162 3160
3122 3123 3122 3121 3124 3123 3123 3121 3120 3119 3119 3119 3119 3119 3121 3122 3123 3124 3125 3126 3127 3128 3130 3132 3134 3136 3139 3141 3144 3146 3148 3151 3154 3157 3161 3161 3162 3164 3164 3165 3164 3164 3163 3163 3161 3160 3159 3158 3156
3121 3122 3121 3121 3122 3122 3121 3120 3118 3116 3118 3118 3119 3118 3119 3121 3122 3124 3125 3126 3128 3129 3131 3133 3136 3138 3140 3142 3145 3147 3149 3151 3153 3156 3157 3159 3160 3160 3160 3160 3160 3160 3159 3158 3157 3156 3154 3153 3152
3121 3121 3120 3121 3119 3120 3119 3117 3115 3115 3116 3118 3118 3119 3119 3120 3121 3123 3124 3125 3128 3130 3132 3134 3136 3138 3141 3144 3146 3147 3149 3151 3152 3153 3155 3154 3155 3156 3156 3156 3155 3156 3155 3153 3152 3151 3150 3148 3147
3119 3119 3119 3119 3118 3118 3118 3114 3113 3113 3114 3116 3117 3118 3118 3119 3120 3122 3124 3126 3128 3130 3132 3134 3136 3138 3140 3142 3144 3146 3147 3148 3149 3150 3151 3151 3150 3151 3152 3152 3151 3151 3149 3148 3147 3147 3145 3143 3141
3116 3117 3117 3118 3118 3114 3115 3111 3112 3112 3112 3112 3114 3115 3117 3118 3120 3121 3122 3124 3126 3129 3131 3133 3135 3136 3138 3140 3141 3143 3145 3146 3147 3147 3147 3145 3145 3146 3147 3147 3146 3144 3144 3143 3142 3141 3140 3137 3134
3115 3115 3116 3116 3115 3115 3113 3113 3106 3109 3109 3110 3110 3112 3114 3116 3118 3119 3121 3123 3125 3127 3129 3131 3133 3134 3136 3137 3138 3140 3141 3142 3142 3143 3142 3141 3141 3141 3141 3140 3140 3139 3137 3137 3136 3134 3132 3130 3127
3112 3113 3114 3114 3114 3111 3109 3111 3102 3105 3107 3108 3108 3108 3110 3112 3114 3116 3118 3120 3122 3125 3126 3128 3130 3131 3132 3134 3135 3136 3138 3138 3138 3138 3137 3136 3135 3135 3134 3134 3133 3132 3131 3130 3128 3127 3125 3122 3120
3110 3112 3110 3110 3109 3107 3107 3108 3103 3104 3104 3104 3104 3105 3105 3106 3108 3112 3114 3117 3119 3121 3123 3125 3126 3128 3129 3131 3132 3133 3133 3133 3132 3132 3131 3130 3129 3127 3125 3125 3125 3124 3124 3122 3121 3119 3116 3114 3111
3105 3108 3106 3105 3103 3102 3106 3103 3100 3101 3100 3100 3100 3100 3100 3101 3103 3105 3109 3112 3115 3117 3119 3121 3123 3124 3126 3127 3129 3129 3128 3128 3127 3127 3126 3124 3122 3118 3109 3117 3116 3115 3115 3115 3112 3109 3107 3104 3102
3102 3103 3105 3106 3106 3106 3101 3101 3099 3098 3098 3097 3097 3096 3095 3097 3099 3102 3104 3107 3110 3112 3115 3117 3119 3120 3121 3123 3123 3123 3123 3122 3122 3121 3119 3117 3116 3114 3110 3110 3109 3107 3107 3107 3105 3103 3100 3096 3092
3098 3100 3103 3103 3101 3099 3095 3098 3094 3098 3097 3097 3097 3096 3095 3096 3097 3098 3100 3102 3105 3107 3109 3112 3114 3115 3116 3117 3118 3118 3117 3116 3115 3114 3112 3111 3108 3106 3106 3106 3101 3102 3100 3098 3097 3095 3092 3089 3085
3095 3096 3098 3097 3099 3095 3094 3094 3095 3096 3096 3096 3095 3095 3095 3094 3094 3095 3096 3098 3100 3102 3104 3106 3107 3109 3110 3111 3110 3110 3110 3109 3107 3106 3104 3103 3101 3100 3100 3099 3096 3095 3093 3092 3087 3086 3084 3080 3077
3090 3091 3093 3094 3096 3096 3095 3094 3093 3093 3092 3093 3093 3093 3093 3093 3092 3092 3093 3095 3097 3099 3100 3102 3104 3105 3105 3105 3105 3105 3104 3103 3101 3100 3098 3096 3094 3094 3093 3092 3092 3089 3088 3084 3082 3077 3073 3070 3067